GW1838 Weather Reports


time (UTC)temp
C
wind
direction
speed
KPH
gust
KPH
rain 1hr
cm
rain 24hr
cm
rain mn
cm
humidity
%
barometer
mb
20260904034304 26 258 4.8 8.0 0.00 2.77 2.77 83 1011.8
20260904033804 26 255 4.8 11.3 0.00 2.77 2.77 83 1011.8
20260904032306 26 269 6.4 16.1 0.00 2.77 2.77 83 1012.0
20260904031804 26 264 4.8 8.0 0.00 2.77 2.77 83 1012.0
20260904031304 26 266 3.2 4.8 0.00 2.77 2.77 83 1011.8
20260904030804 26 264 3.2 9.7 0.00 2.77 2.77 83 1011.6
20260904030304 26 263 3.2 4.8 0.00 2.77 2.77 83 1011.6
20260904025804 26 279 3.2 8.0 0.00 2.77 2.77 83 1011.6
20260904025306 26 273 3.2 9.7 0.00 2.77 2.77 83 1011.7
20260904024304 26 271 4.8 9.7 0.00 2.77 2.77 83 1011.8
20260904023304 26 255 3.2 8.0 0.00 2.77 2.77 83 1012.1
20260904022305 26 262 3.2 4.8 0.00 2.77 2.77 83 1012.1
20260904020804 26 265 3.2 4.8 0.00 2.77 2.77 83 1012.4
20260904014304 27 266 1.6 8.0 0.00 2.77 2.77 82 1012.4
20260904013804 27 256 3.2 8.0 0.00 2.77 2.77 82 1012.4
20260904012306 27 252 4.8 9.7 0.00 2.77 2.77 82 1012.3
20260904010804 27 243 4.8 14.5 0.00 2.77 2.77 83 1012.3
20260904010304 27 242 4.8 9.7 0.00 2.77 2.77 83 1012.4
20260904005804 27 264 4.8 8.0 0.00 2.77 2.77 83 1012.4
20260904004804 27 257 3.2 8.0 0.00 2.77 2.77 83 1012.5
20260904004305 27 265 3.2 8.0 0.00 2.77 2.77 83 1012.5
20260904002306 27 256 3.2 8.0 0.00 2.77 2.77 82 1012.2
20260904000805 27 255 3.2 4.8 0.00 2.77 2.77 81 1012.1
20260903235805 28 266 3.2 8.0 0.00 2.77 2.77 80 1011.9
20260903233805 28 271 3.2 4.8 0.00 2.77 2.77 78 1011.7
20260903233305 28 268 3.2 4.8 0.00 2.77 2.77 77 1011.6
20260903231805 29 277 1.6 4.8 0.00 2.77 2.77 76 1011.8
20260903231305 29 277 1.6 4.8 0.00 2.77 2.77 75 1011.6
20260903225805 30 271 3.2 9.7 0.00 2.77 2.77 72 1011.4
20260903224804 30 280 1.6 4.8 0.00 2.77 2.77 73 1011.3
20260903224305 30 286 1.6 4.8 0.00 2.77 2.77 73 1011.3
20260903222805 30 270 3.2 9.7 0.00 2.77 2.77 72 1011.3
20260903221304 31 271 4.8 9.7 0.00 2.77 2.77 71 1011.3
20260903220805 31 268 4.8 14.5 0.00 2.77 2.77 70 1011.3
20260903220306 31 265 4.8 11.3 0.00 2.77 2.77 70 1011.3
20260903215804 31 278 8.0 14.5 0.00 2.77 2.77 68 1011.4
20260903213805 31 257 6.4 14.5 0.00 2.77 2.77 66 1011.0
20260903213305 31 250 4.8 9.7 0.00 2.77 2.77 67 1011.0
20260903212805 32 271 6.4 16.1 0.00 2.77 2.77 67 1011.1
20260903212306 31 252 4.8 9.7 0.00 2.77 2.77 67 1011.1
20260903211805 31 256 4.8 14.5 0.00 2.77 2.77 67 1011.1
20260903211305 31 266 4.8 9.7 0.00 2.77 2.77 68 1011.2
20260903210805 31 259 4.8 14.5 0.00 2.77 2.77 67 1011.1
20260903205806 31 260 4.8 9.7 0.00 2.77 2.77 68 1011.2
20260903205306 31 241 4.8 11.3 0.00 2.77 2.77 69 1011.2
20260903195805 32 272 3.2 11.3 0.00 2.77 2.77 67 1011.7
20260903192805 32 253 4.8 11.3 0.00 2.77 2.77 67 1012.0
20260903191804 32 252 6.4 12.9 0.00 2.77 2.77 67 1012.1
20260903191304 32 247 8.0 14.5 0.00 2.77 2.77 65 1012.1
20260903190804 32 251 6.4 11.3 0.00 2.77 2.77 66 1012.1
20260903185804 32 274 4.8 11.3 0.00 2.77 2.77 66 1012.3
20260903184305 30 270 4.8 9.7 0.00 2.77 2.77 74 1012.3
20260903182805 30 236 8.0 19.3 0.00 2.77 2.77 73 1012.5
20260903182306 30 248 11.3 20.9 0.00 2.77 2.77 73 1012.5
20260903181804 30 226 8.0 19.3 0.00 2.77 2.77 73 1012.6
20260903180805 31 240 9.7 19.3 0.00 2.77 2.77 71 1012.8
20260903175805 31 243 4.8 14.5 0.00 2.77 2.77 71 1012.9
20260903174304 31 237 4.8 11.3 0.00 2.77 2.77 70 1013.2
20260903173805 31 249 4.8 14.5 0.00 2.77 2.77 70 1013.3
20260903173304 31 260 4.8 16.1 0.00 2.77 2.77 72 1013.5
20260903172805 30 266 6.4 16.1 0.00 2.77 2.77 73 1013.6
20260903171305 30 253 8.0 11.3 0.00 2.77 2.77 74 1013.8
20260903165306 29 252 8.0 12.9 0.00 2.77 2.77 74 1014.2
20260903164305 29 262 4.8 12.9 0.00 2.77 2.77 75 1014.1
20260903163805 28 254 3.2 11.3 0.00 2.77 2.77 76 1014.0
20260903162306 28 244 4.8 12.9 0.00 2.77 2.77 75 1014.2
20260903161805 28 255 6.4 14.5 0.00 2.77 2.77 75 1014.2
20260903160304 29 244 8.0 14.5 0.00 2.77 2.77 75 1014.2
20260903155805 29 247 8.0 16.1 0.00 2.77 2.77 74 1014.3
20260903155306 29 254 4.8 11.3 0.00 2.77 2.77 74 1014.3
20260903154804 29 266 4.8 11.3 0.00 2.77 2.77 75 1014.4
20260903154304 28 259 3.2 11.3 0.00 2.77 2.77 75 1014.3
20260903152306 28 245 8.0 19.3 0.00 2.77 2.77 76 1014.3
20260903151804 27 257 4.8 11.3 0.00 2.77 2.77 77 1014.4
20260903151305 27 236 8.0 14.5 0.00 2.77 2.77 77 1014.4
20260903145805 27 235 4.8 16.1 0.00 2.77 2.77 78 1014.4
20260903144305 26 248 6.4 16.1 0.00 2.77 2.77 79 1014.3
20260903142804 26 239 8.0 19.3 0.00 2.77 2.77 78 1014.0
20260903142306 26 249 9.7 20.9 0.00 2.77 2.77 78 1014.2
20260903140304 25 246 8.0 16.1 0.00 2.77 2.77 82 1014.2
20260903133804 24 223 3.2 9.7 0.00 2.77 2.77 87 1013.7
20260903133305 24 213 4.8 8.0 0.00 2.77 2.77 86 1013.6
20260903132306 24 219 4.8 16.1 0.00 2.77 2.77 87 1013.5
20260903131805 23 183 9.7 16.1 0.00 2.77 2.77 87 1013.4
20260903130804 23 238 9.7 19.3 0.00 2.77 2.77 87 1014.4
20260903130304 23 255 9.7 19.3 0.00 2.77 2.77 87 1014.7
20260903125805 23 233 12.9 24.1 0.00 2.77 2.77 87 1014.3
20260903125305 23 221 9.7 20.9 0.00 2.77 2.77 87 1014.3
20260903124805 23 231 11.3 22.5 0.00 2.77 2.77 87 1014.4
20260903124305 23 239 12.9 22.5 0.00 2.77 2.77 87 1014.6
20260903123805 23 232 14.5 22.5 0.00 2.77 2.77 88 1015.0
20260903121804 23 243 8.0 16.1 0.00 2.77 2.77 89 1015.1
20260903121305 23 243 8.0 19.3 0.00 2.77 2.77 88 1015.2
20260903120804 23 245 4.8 11.3 0.00 2.77 2.77 87 1015.1
20260903115804 23 245 4.8 12.9 0.00 2.77 2.77 86 1015.3
20260903115306 23 252 4.8 12.9 0.00 2.77 2.77 86 1015.3
20260903114805 23 255 8.0 16.1 0.00 2.77 2.77 86 1015.1
20260903114304 23 255 9.7 19.3 0.03 2.77 2.77 86 1015.1
20260903113305 23 248 9.7 19.3 0.03 2.77 2.77 88 1015.1
20260903112804 22 240 9.7 19.3 0.03 2.77 2.77 89 1014.9
20260903110804 22 228 6.4 14.5 0.13 2.77 2.77 90 1014.0
20260903110304 22 236 9.7 22.5 0.15 2.77 2.77 91 1014.3
20260903105805 22 236 14.5 22.5 0.18 2.77 2.77 91 1014.5
20260903105306 22 237 11.3 22.5 0.20 2.77 2.77 91 1014.6
20260903104806 22 233 11.3 19.3 0.23 2.77 2.77 92 1014.9
20260903104305 22 237 8.0 16.1 0.20 2.74 2.74 92 1015.0
20260903103804 22 242 4.8 14.5 0.20 2.74 2.74 92 1015.2
20260903102306 21 217 4.8 9.7 0.23 2.74 2.74 92 1015.1
20260903100305 22 257 4.8 16.1 0.13 2.62 2.62 92 1016.1
20260903095306 22 284 6.4 19.3 0.10 2.57 2.57 92 1016.8
20260903094804 23 280 6.4 19.3 0.08 2.54 2.54 93 1016.7
20260903092306 23 280 3.2 8.0 0.05 2.51 2.51 92 1015.5
20260903091805 23 273 3.2 11.3 0.03 2.49 2.49 93 1015.7
20260903091305 22 237 6.4 14.5 0.05 2.49 2.49 92 1015.7
20260903085306 23 227 3.2 9.7 0.03 2.46 2.46 93 1015.4
20260903083804 22 207 3.2 4.8 0.13 2.46 2.46 93 1015.0
20260903083304 22 209 0.0 8.0 0.18 2.46 2.46 93 1015.0
20260903082306 22 208 4.8 9.7 0.30 2.46 2.46 92 1014.7
20260903081805 22 207 3.2 4.8 0.43 2.46 2.46 92 1014.8
20260903081305 22 207 1.6 4.8 0.58 2.44 2.44 92 1014.9
20260903080304 22 189 0.0 4.8 1.30 2.44 2.44 92 1015.1
20260903074304 22 166 3.2 4.8 2.39 2.39 2.39 92 1015.5
20260903073304 22 295 0.0 4.8 2.29 2.29 2.29 92 1016.2
20260903071304 23 333 8.0 16.1 1.85 1.85 1.85 91 1017.3
20260903070804 23 293 4.8 11.3 1.65 1.65 1.65 91 1017.3
20260903064804 23 19 1.6 4.8 0.00 0.00 0.00 91 1016.2
20260903064304 23 19 0.0 1.6 0.00 0.00 0.00 91 1015.7
20260903063805 23 20 4.8 11.3 0.00 0.00 0.00 91 1015.9
20260903061804 23 0 16.1 22.5 0.00 0.00 0.00 91 1016.4
20260903060805 23 347 14.5 19.3 0.00 0.00 0.00 91 1016.2
20260903060304 23 349 6.4 9.7 0.00 0.00 0.00 91 1015.9
20260903055306 23 346 8.0 9.7 0.00 0.00 0.00 91 1015.9
20260903052804 23 123 0.0 0.0 0.00 0.00 0.00 91 1016.1
20260903052307 23 123 0.0 0.0 0.00 0.00 0.00 91 1016.3
20260903050804 23 123 0.0 0.0 0.00 0.00 0.00 91 1016.4
20260903045306 23 123 0.0 0.0 0.00 0.00 0.00 90 1016.6
20260903044804 23 123 0.0 0.0 0.00 0.00 0.00 90 1016.6
20260903044304 23 123 0.0 0.0 0.00 0.00 0.00 90 1016.8
20260903043804 23 123 0.0 0.0 0.00 0.00 0.00 90 1016.7
20260903043304 23 123 0.0 0.0 0.00 0.00 0.00 90 1016.7
20260903042804 23 123 0.0 0.0 0.00 0.00 0.00 90 1016.7
20260903042306 23 123 0.0 3.2 0.00 0.00 0.00 90 1016.8
20260903040836 23 115 1.6 3.2 0.00 0.00 0.00 90 1016.9